Regional Weather Roundup
Issued by NWS Binghamton, NY

Current Version | Previous Version | Text Only | Print | Product List | Glossary On
Versions: 1 2 3 4 5 6 7 8 9 10 11 12 13 14 15 16 17 18 19 20 21 22 23 24 25 26 27
000
ASUS41 KBGM 280010
RWRBGM

REGIONAL WEATHER ROUNDUP
NATIONAL WEATHER SERVICE BINGHAMTON NY
800 PM EDT SAT AUG 27 2016

Note: "fair" indicates few or no clouds below 12,000 feet with no
significant weather and/or obstructions to visibility.

* = Station(s) that does not report precipitation, such as rain,
snow, etc, also no thunder or fog.

NYZ009-015>018-022>025-036-037-044>046-055>057-062-280100
...Central New York...

CITY           SKY/WX    TMP DP  RH WIND       PRES   REMARKS
Binghamton     CLEAR     78  62  57 CALM      30.24R
Cortland       FAIR      73  64  73 CALM      30.22R
Dansville      CLEAR     77  67  71 CALM      30.17S
Elmira         CLOUDY    77  67  71 CALM      30.19R
Ithaca         PTCLDY    72  66  81 E6        30.22R
Hamilton       CLEAR     70  66  88 CALM      30.23R
Hornell        RAIN      72  64  78 SE3       30.23R
Monticello     CLEAR     73  61  64 SW3       30.26R
Norwich        CLEAR     72  64  78 CALM      30.22R
Oneonta        CLEAR     72  61  68 CALM      30.26R
Penn Yan       CLEAR     75  65  70 CALM      30.20R
Rome           CLEAR     72  66  81 NE6       30.20R
Sidney         PTCLDY    72  72 100 CALM      30.22R
Syracuse       PTCLDY    73  66  78 NE5       30.18R
$$

PAZ038>040-043-044-047-048-072-280100
...Northeast Pennsylvania...

CITY           SKY/WX    TMP DP  RH WIND       PRES   REMARKS
Hazleton       CLOUDY    68  63  83 CALM      30.28R
Scranton       CLOUDY    78  64  61 SW5       30.21R
$$
&&
KEY
WCI = Wind Chill Index
VSB = Visibility
HX  = Heat Index
$$




USA.gov is the U.S. government's official web portal to all federal, state and local government web resources and services.